San Diego, CA

9:30 AM PST on February 27, 2017 (GMT -0800)
Brown Municipal

Weather History for KSDM - November, 2012

Change the Weather History Date:

Friday, November 9, 2012

  Actual Average Record
Temperature  
Mean Temperature 56 °F 60 °F  
Max Temperature 61 °F 72 °F 95 °F (2016)
Min Temperature 51 °F 48 °F 42 °F (2011)
Degree Days  
Heating Degree Days 9 6  
Month to date heating degree days 43  
Since 1 July heating degree days 108  
Cooling Degree Days 0 1  
Month to date cooling degree days 9  
Year to date cooling degree days 617  
Growing Degree Days 6 (Base 50)    
Moisture  
Dew Point 50 °F    
Average Humidity 79    
Maximum Humidity 100    
Minimum Humidity 55    
Precipitation  
Precipitation 0.14 in 0.03 in 0.19 in (2008)
Month to date precipitation 0.31  
Year to date precipitation 9.61  
Sea Level Pressure  
Sea Level Pressure 29.94 in    
Wind  
Wind Speed 6 mph (West)    
Max Wind Speed 13 mph    
Max Gust Speed 105 mph    
Visibility 10 miles    
Events Rain    
T = Trace of Precipitation, MM = Missing Value Source: NWS Daily Summary

Daily Weather History Graph

Daily Weather History Graph

Search for Another Location

Airport or City:

Trip Planner

Search our weather history database for the weather conditions in past years. The results will help you decide how hot, cold, wet, or windy it might be!

Date:

Astronomy

Nov. 09, 2012 Rise Set
Actual Time 6:12 AM PST 4:50 PM PST
Civil Twilight 5:46 AM PST 5:16 PM PST
Nautical Twilight 5:17 AM PST 5:45 PM PST
Astronomical Twilight 4:48 AM PST 6:14 PM PST
Moon 1:31 AM PST (11/9) 1:53 PM PST (11/9)
Length of Visible Light 11h 29m
Length of Day
10h 37m
Waning Crescent, 22% of the Moon is Illuminated
Nov 9
Waning Crescent
Nov 13
New
Nov 20
First Quarter
Nov 28
Full
Dec 6
Last Quarter

Hourly Weather History & Observations

Time (PST) Temp. Dew Point Humidity Pressure Visibility Wind Dir Wind Speed Gust Speed Precip Events Conditions
12:00 AM 57.2 °F 57.2 °F 100% 29.94 in 9.0 mi West 5.8 mph - 0.00 in Rain Light Rain
12:34 AM 57.2 °F 55.4 °F 94% 29.94 in 10.0 mi West 8.1 mph - 0.00 in   Overcast
12:53 AM 57.9 °F 55.9 °F 93% 29.94 in 10.0 mi West 6.9 mph - 0.00 in   Overcast
1:53 AM 57.9 °F 52.0 °F 81% 29.94 in 10.0 mi West 9.2 mph - N/A   Overcast
2:53 AM 57.0 °F 51.1 °F 81% 29.93 in 10.0 mi Calm Calm - 0.00 in   Overcast
3:41 AM 55.4 °F 53.6 °F 94% 29.93 in 10.0 mi ENE 4.6 mph - 0.00 in   Overcast
3:53 AM 55.0 °F 53.1 °F 93% 29.93 in 10.0 mi ENE 3.5 mph - 0.00 in   Overcast
4:11 AM 55.4 °F 53.6 °F 94% 29.93 in 10.0 mi East 4.6 mph - N/A   Overcast
4:53 AM 55.9 °F 53.1 °F 90% 29.93 in 8.0 mi ESE 4.6 mph - 0.00 in Rain Light Rain
5:53 AM 55.0 °F 54.0 °F 96% 29.93 in 10.0 mi Calm Calm - 0.01 in   Overcast
6:53 AM 55.9 °F 54.0 °F 93% 29.94 in 10.0 mi Calm Calm - N/A   Overcast
7:53 AM 57.9 °F 53.1 °F 84% 29.94 in 10.0 mi Calm Calm - N/A   Overcast
8:49 AM 59.0 °F 53.6 °F 82% 29.95 in 10.0 mi Calm Calm - N/A   Overcast
8:53 AM 60.1 °F 53.1 °F 78% 29.95 in 10.0 mi Calm Calm - N/A   Overcast
9:53 AM 59.0 °F 51.1 °F 75% 29.96 in 6.0 mi WNW 6.9 mph - 0.00 in Rain Light Rain
10:53 AM 60.1 °F 50.0 °F 69% 29.95 in 10.0 mi WNW 10.4 mph - 0.01 in   Overcast
11:16 AM 60.8 °F 50.0 °F 68% 29.95 in 10.0 mi WNW 11.5 mph 20.7 mph N/A   Overcast
11:33 AM 60.8 °F 48.2 °F 63% 29.95 in 10.0 mi WNW 9.2 mph 19.6 mph N/A   Overcast
11:53 AM 61.0 °F 48.0 °F 62% 29.94 in 10.0 mi WNW 9.2 mph 18.4 mph N/A   Overcast
12:53 PM 60.1 °F 46.9 °F 62% 29.92 in 10.0 mi NW 6.9 mph 17.3 mph 0.00 in Rain Light Rain
1:53 PM 59.0 °F 46.0 °F 62% 29.91 in 10.0 mi WNW 10.4 mph 43.7 mph 0.00 in Rain Light Rain
2:09 PM 59.0 °F 46.4 °F 63% 29.92 in 10.0 mi WSW 12.7 mph 104.7 mph 0.00 in   Squalls
2:20 PM 59.0 °F 46.4 °F 63% 29.92 in 10.0 mi West 11.5 mph 102.4 mph 0.00 in   Squalls
2:53 PM - - N/A% 29.91 in - North - - 0.00 in   Unknown
3:04 PM - - N/A% 29.92 in - North - - N/A   Unknown
3:53 PM 60.1 °F 44.1 °F 55% 29.91 in 10.0 mi West 12.7 mph 17.3 mph N/A   Scattered Clouds
4:53 PM 57.0 °F 44.1 °F 62% 29.92 in 10.0 mi North - - N/A   Mostly Cloudy
5:53 PM 55.9 °F 45.0 °F 67% 29.93 in 10.0 mi West 5.8 mph - N/A   Mostly Cloudy
6:53 PM 53.1 °F 46.9 °F 80% 29.95 in 10.0 mi WSW 6.9 mph - 0.01 in   Mostly Cloudy
7:53 PM 51.1 °F 46.9 °F 86% 29.96 in 10.0 mi Calm Calm - N/A   Overcast
8:53 PM 51.1 °F 48.9 °F 92% 29.97 in 10.0 mi ESE 4.6 mph - 0.09 in   Mostly Cloudy
9:53 PM 51.1 °F 48.9 °F 92% 29.98 in 10.0 mi SE 5.8 mph - 0.00 in   Scattered Clouds
10:53 PM 53.1 °F 48.0 °F 83% 29.98 in 10.0 mi West 9.2 mph - 0.02 in   Overcast
11:53 PM 54.0 °F 46.9 °F 77% 29.97 in 10.0 mi West 6.9 mph - N/A   Overcast